Weather History for KFHR - August, 2012

Change the Weather History Date:

Tuesday, August 21, 2012

  Actual Average Record
Temperature  
Mean Temperature 56 °F -  
Max Temperature 66 °F 69 °F 79 °F (2003)
Min Temperature 48 °F 48 °F 33 °F (1996)
Degree Days  
Heating Degree Days 9    
Growing Degree Days 6 (Base 50)    
Moisture  
Dew Point 51 °F    
Average Humidity 84    
Maximum Humidity 97    
Minimum Humidity 63    
Precipitation  
Precipitation 0.00 in - - ()
Sea Level Pressure  
Sea Level Pressure 30.00 in    
Wind  
Wind Speed 3 mph (SSE)    
Max Wind Speed 9 mph    
Max Gust Speed 16 mph    
Visibility 10 miles    
Events      
Averages and records for this station are not official NWS values.
T = Trace of Precipitation, MM = Missing Value Source: NWS Daily Summary

Daily Weather History Graph

Daily Weather History Graph

Search for Another Location

Airport or City:

Trip Planner

Search our weather history database for the weather conditions in past years. The results will help you decide how hot, cold, wet, or windy it might be!

Date:

Astronomy

Aug. 21, 2012 Rise Set
Actual Time 6:14 AM PDT 8:14 PM PDT
Civil Twilight 5:41 AM PDT 8:47 PM PDT
Nautical Twilight 4:59 AM PDT 9:29 PM PDT
Astronomical Twilight 4:12 AM PDT 10:15 PM PDT
Moon 11:21 AM PDT (8/21) 9:46 PM PDT (8/21)
Length of Visible Light 15h 06m
Length of Day
13h 59m
Waxing Crescent, 20% of the Moon is Illuminated
Aug 21
Waxing Crescent
Aug 24
First Quarter
Aug 31
Full
Sep 8
Last Quarter
Sep 15
New

Hourly Weather History & Observations

Time (PDT) Temp. Dew Point Humidity Pressure Visibility Wind Dir Wind Speed Gust Speed Precip Events Conditions
12:53 AM 51.1 °F 48.9 °F 92% 29.97 in 10.0 mi Calm Calm - N/A   Clear
1:53 AM 50.0 °F 48.0 °F 93% 29.97 in 10.0 mi Calm Calm - N/A   Clear
2:53 AM 50.0 °F 48.0 °F 93% 29.96 in 10.0 mi Calm Calm - N/A   Clear
3:53 AM 48.9 °F 48.0 °F 97% 29.96 in 10.0 mi Calm Calm - N/A   Clear
4:53 AM 48.0 °F 46.9 °F 96% 29.96 in 7.0 mi Calm Calm - N/A   Partly Cloudy
5:53 AM 51.1 °F 50.0 °F 96% 29.97 in 9.0 mi Calm Calm - N/A   Overcast
6:53 AM 53.1 °F 51.1 °F 93% 29.98 in 9.0 mi Calm Calm - N/A   Overcast
7:53 AM 53.1 °F 51.1 °F 93% 29.99 in 10.0 mi Calm Calm - N/A   Overcast
8:53 AM 54.0 °F 51.1 °F 90% 30.00 in 10.0 mi East 4.6 mph - N/A   Overcast
9:16 AM 53.6 °F 51.8 °F 94% 30.00 in 10.0 mi East 4.6 mph - N/A   Overcast
9:53 AM 53.1 °F 51.1 °F 93% 30.01 in 10.0 mi East 4.6 mph - N/A   Overcast
10:16 AM 53.6 °F 51.8 °F 94% 30.01 in 10.0 mi East 3.5 mph - N/A   Overcast
10:38 AM 53.6 °F 51.8 °F 94% 30.01 in 10.0 mi East 3.5 mph - N/A   Overcast
10:53 AM 54.0 °F 51.1 °F 90% 30.01 in 10.0 mi East 3.5 mph - N/A   Overcast
11:53 AM 57.9 °F 53.1 °F 84% 30.01 in 9.0 mi ESE 6.9 mph - N/A   Overcast
12:06 PM 57.2 °F 53.6 °F 88% 30.01 in 10.0 mi ESE 5.8 mph - N/A   Mostly Cloudy
12:53 PM 60.1 °F 53.1 °F 78% 30.01 in 10.0 mi East 4.6 mph - N/A   Overcast
1:53 PM 60.1 °F 53.1 °F 78% 30.02 in 10.0 mi ENE 5.8 mph - N/A   Mostly Cloudy
2:53 PM 61.0 °F 52.0 °F 72% 30.02 in 10.0 mi SSW 6.9 mph - N/A   Overcast
3:53 PM 60.1 °F 52.0 °F 75% 30.02 in 10.0 mi Calm Calm - N/A   Overcast
4:53 PM 61.0 °F 52.0 °F 72% 30.02 in 10.0 mi Variable 4.6 mph - N/A   Overcast
5:53 PM 63.0 °F 51.1 °F 65% 30.01 in 10.0 mi SW 8.1 mph - N/A   Overcast
6:53 PM 64.0 °F 51.1 °F 63% 30.01 in 10.0 mi SW 9.2 mph - N/A   Overcast
7:53 PM 57.9 °F 51.1 °F 78% 30.00 in 10.0 mi SW 6.9 mph 16.1 mph N/A   Mostly Cloudy
8:53 PM 59.0 °F 50.0 °F 72% 30.02 in 10.0 mi SW 6.9 mph - N/A   Overcast
9:53 PM 57.9 °F 48.9 °F 72% 30.03 in 10.0 mi SW 8.1 mph - N/A   Overcast
10:53 PM 57.0 °F 50.0 °F 77% 30.03 in 10.0 mi SW 6.9 mph - N/A   Overcast
11:53 PM 57.0 °F 50.0 °F 77% 30.03 in 10.0 mi SW 6.9 mph - N/A   Overcast